Location: Frankfurt+am+Main
(50.1100°N, 8.4815°E)
Time: 02:29:21
(UTC+02:00)

ISS - Visible Passes

Search period start: 22 May 2018 00:00
Search period end: 01 June 2018 00:00
Orbit: 402 x 407 km, 51.6° (Epoch: 22 May)

Date Brightness Start Highest point End Pass type
(mag) Time Alt. Az. Time Alt. Az. Time Alt. Az.
22 May -3.4 01:29:25 10° W 01:32:41 64° N 01:35:57 10° E visible
22 May -4.0 03:05:58 10° WNW 03:09:14 69° SSW 03:12:29 10° ESE visible
22 May -2.3 04:43:05 10° W 04:45:17 17° SW 04:47:29 10° S visible
22 May -3.8 23:00:43 10° SW 23:03:56 57° SSE 23:07:09 10° ENE visible
23 May -3.5 00:37:10 10° W 00:40:26 66° N 00:43:41 10° E visible
23 May -3.9 02:13:46 10° WNW 02:17:03 88° NNE 02:20:20 10° ESE visible
23 May -2.9 03:50:29 10° W 03:53:18 26° SW 03:56:05 10° SSE visible
23 May -3.3 22:08:45 10° SW 22:11:49 38° SSE 22:14:53 10° E visible
23 May -3.7 23:44:55 10° W 23:48:11 74° N 23:51:28 10° ENE visible
24 May -3.7 01:21:33 10° WNW 01:24:50 73° N 01:27:53 11° E visible
24 May -2.9 02:58:07 10° W 03:00:17 31° WSW 03:00:17 31° WSW visible
24 May -3.9 22:52:40 10° WSW 22:55:57 89° SSE 22:59:14 10° ENE visible
25 May -3.5 00:29:18 10° W 00:32:34 65° N 00:35:41 11° E visible
25 May -3.3 02:05:51 10° WNW 02:08:16 42° W 02:08:16 42° W visible
25 May -3.9 22:00:30 10° WSW 22:03:45 66° SSE 22:06:59 10° ENE visible
25 May -3.4 23:37:01 10° W 23:40:17 64° N 23:43:32 10° E visible
26 May -4.0 01:13:36 10° WNW 01:16:53 84° SSW 01:17:10 72° SE visible
26 May -3.5 22:44:43 10° W 22:48:00 70° N 22:51:15 10° ENE visible
27 May -3.8 00:21:21 10° WNW 00:24:38 77° NNE 00:26:18 26° E visible
27 May -1.7 01:57:57 10° W 01:58:56 17° W 01:58:56 17° W visible
27 May -3.5 23:29:04 10° WNW 23:32:20 67° N 23:35:34 10° E visible
28 May -3.3 01:05:36 10° WNW 01:08:10 43° WSW 01:08:10 43° WSW visible
28 May -3.4 22:36:45 10° W 22:40:01 64° N 22:43:16 10° E visible
29 May -4.0 00:13:18 10° WNW 00:16:35 76° SSW 00:17:29 44° SE visible
29 May -3.8 23:21:01 10° WNW 23:24:18 83° NNE 23:26:49 16° ESE visible
30 May -2.2 00:57:40 10° W 00:59:26 23° WSW 00:59:26 23° WSW visible
30 May -3.5 22:28:42 10° WNW 22:31:59 70° N 22:35:15 10° E visible
31 May -3.5 00:05:15 10° WNW 00:08:25 45° SSW 00:08:49 42° S visible
31 May -3.9 23:12:55 10° WNW 23:16:10 67° SSW 23:18:12 21° ESE visible
